Location: ??????
(55.2000°N, 38.3000°E)
Time: 17:09:29
(UTC+00:00)

Cosmos 2322 - Pass Details

Date: 15 November 2025
Orbit: 841 x 852 km, 71.0° (Epoch: 14 December)

Event Time Altitude Azimuth Distance (km) Brightness Sun altitude
Exits shadow 01:40:17 59° 354° (N) 975 3.9 -28.0°
Drops below altitude 10° 01:45:06 10° 31° (NNE) 2,474 6.6 -27.4°
Sets 01:47:35 0° 35° (NE) 3,411 7.4 -27.0°
